Regional Weather Roundup
Issued by NWS

Home | Current Version | Previous Version | Text Only | Print | Product List | Glossary Off
Versions: 1 2 3 4 5 6 7 8 9 10 11 12 13 14 15 16 17 18 19 20 21 22 23 24 25 26 27 28 29 30 31 32 33 34 35 36 37 38 39 40 41 42 43 44 45 46 47 48 49 50

000
ASUS43 KDMX 300107
RWRIA

WEATHER ROUNDUP FOR IOWA
NATIONAL WEATHER SERVICE DES MOINES IA
800 PM CDT MON JUN 29 2015

NOTE: "FAIR" INDICATES FEW OR NO CLOUDS BELOW 12,000 FEET WITH NO
SIGNIFICANT WEATHER AND/OR OBSTRUCTIONS TO VISIBILITY.

* - THESE STATIONS ARE NOT NWS STATIONS...THUS NOT UNDER NWS
QUALITY CONTROL.  THEY ALSO DO NOT REPORT WEATHER SUCH
AS PRECIPITATION OR FOG.

IAZ001>003-012>014-020>022-031>034-043>046-300200-
   NORTHWEST IOWA

CITY           SKY/WX    TMP DP  RH WIND       PRES   REMARKS
CARROLL *      CLEAR     73  66  78 W7        29.88F
CHEROKEE *     CLEAR     75  64  69 W3        29.89S
DENISON *      CLEAR     75  66  73 MISG      29.89S
LE MARS *      SUNNY     75  66  73 NW3       29.90S
ORANGE CITY *  SUNNY     73  63  68 W3        29.90S
SHELDON *      CLEAR     73  64  73 W6        29.87F
SIOUX CITY     MOSUNNY   77  64  64 W5        29.89F HAZE
SPENCER        CLEAR     75  65  70 W8        29.88S HAZE
STORM LAKE *   CLEAR     73  64  73 W8        29.90S
$$

IAZ055>058-069>071-079>083-090>094-300200-
   SOUTHWEST IOWA

CITY           SKY/WX    TMP DP  RH WIND       PRES   REMARKS
ATLANTIC *     CLEAR     77  63  61 W3        29.90F
AUDUBON *      CLEAR     75  66  73 CALM      29.91F
CLARINDA *     CLEAR     79  66  65 NW6       29.91S HX  81
COUNCIL BLFS * CLEAR     77  64  65 N3        29.92R
CRESTON *      CLEAR     75  64  69 NW7       29.91R
HARLAN  *      CLEAR     75  72  88 NW3       29.94S
LAMONI         CLEAR     77  67  71 NW3       29.89S
RED OAK *      CLEAR     77  66  69 N5        29.91R
SHENANDOAH *   CLEAR     79  64  61 N3        29.91R HX  81
$$

IAZ047>049-059>061-072>074-084-300200-
   CENTRAL IOWA

CITY           SKY/WX    TMP DP  RH WIND       PRES   REMARKS
AMES           CLEAR     75  65  70 W8        29.85S
ANKENY *       CLEAR     75  66  73 W6        29.86R
CHARITON *     CLEAR     75  68  78 W5        29.88S
DES MOINES     CLOUDY    78  63  59 W7        29.86S HX  80
GRINNELL*      CLEAR     73  66  78 W5        29.86S
KNOXVILLE *    CLEAR     75  68  78 W6        29.85S
MARSHALLTOWN   CLEAR     75  66  73 W6        29.84R
PELLA *        CLEAR     75  70  83 W5        29.87R
PERRY *          N/A     75  66  73 W7        29.87S
$$

IAZ004>006-015-016-023>025-035-036-300200-
   NORTH CENTRAL IOWA

CITY           SKY/WX    TMP DP  RH WIND       PRES   REMARKS
ALGONA *       CLEAR     75  64  69 W7        29.86S
CLARION *      CLEAR     75  66  73 W7        29.85S
ESTHERVILLE    CLEAR     74  62  66 W7        29.86S
FORT DODGE *   CLEAR     73  63  68 W5        29.87S
MASON CITY     CLEAR     74  65  73 W9        29.85S
FOREST CITY *  CLEAR     72  64  78 W3        29.84S
IOWA FALLS *     N/A     73  66  78 W7        29.86S
$$

IAZ007>011-017>019-026>030-037>042-050>054-066-300200-
   NORTHEAST IOWA

CITY           SKY/WX    TMP DP  RH WIND       PRES   REMARKS
CEDAR RAPIDS   PTCLDY    73  67  81 W7        29.81S
CHARLES CITY * CLEAR     75  68  78 W12       29.83S
CLINTON *      PTCLDY    72  66  83 W5        29.82F
DECORAH *        N/A    N/A N/A N/A MISG        N/A
DUBUQUE        MOCLDY    71  61  70 W8        29.81S
MONTICELLO *   CLOUDY    70 -38   1 CALM      29.80F
OELWEIN *      CLEAR     73  68  83 W6        29.82S
WATERLOO       MOCLDY    77  65  66 W6        29.81R
$$

IAZ064-065-067-068-078-300200-
   EAST CENTRAL IOWA

CITY           SKY/WX    TMP DP  RH WIND       PRES   REMARKS
DAVENPORT      MOCLDY    72  68  87 CALM      29.81F THUNDER
IOWA CITY      MOCLDY    76  67  73 W6        29.82S
MT. PLEASANT * PTCLDY    77  61  57 W5        29.84S
MUSCATINE *    PTCLDY    77  64  65 W8        29.81S
QUAD CITIES    PTCLDY    73  69  87 S6        29.80S
$$

IAZ062-063-075>077-085>089-095>099-300200-
   SOUTHEAST IOWA

CITY           SKY/WX    TMP DP  RH WIND       PRES   REMARKS
BURLINGTON     PTCLDY    73  71  93 SW3       29.83S
FAIRFIELD *    CLEAR     73  68  83 CALM      29.84F
FORT MADISON * CLEAR     73  72  94 CALM      29.85S
KEOKUK *       CLEAR     75  70  83 W5        29.83S
OSKALOOSA *      N/A     73  68  83 W5        29.85F
CENTERVILLE *  CLEAR     73  68  83 NW5       29.89S
OTTUMWA        CLEAR     74  66  76 W7        29.84S
WASHINGTON *   CLEAR     72  63  73 W6        29.84F
$$

ABBREVIATIONS USED IN REMARKS
   TC - TEMPERATURES IN CELSIUS
  WCI - WIND CHILL INDEX
   HX - HEAT INDEX
  VSB - VISIBILITY
$$




USA.gov is the U.S. government's official web portal to all federal, state and local government web resources and services.